[[{"header":{"parameterUnit":"m.s-1","parameterCategory":1,"la1":30.2991,"la2":30.254,"lo1":-89.0895,"lo2":-89.0444,"dy":0.0017,"dx":0.0017,"nx":28,"ny":28,"refTime":"2024-07-18T21:00:00:Z","depth":0,"parameterNumber":2,"parameterNumberName":"U-component_of_WINDS"},"data":[0,0,0,0,0,0,0,0,0,0,0,0,0,0,0,0,0,0,0,0,0,0,0,0,0,0,0,0,0,0,0,0,0,0,0,0,0,0,0,0,0,0,0,0,0,0,0,0,0,0,0,0,0,0,0,0,0,0,1.8935,1.8934,0,1.8893,1.8893,1.8892,1.8885,1.8886,1.8886,1.8886,1.8839,1.8837,1.8836,0,0,0,0,0,0,0,0,0,0,0,0,0,1.9003,1.9001,1.8935,1.8934,1.8934,1.8893,1.8893,1.8892,1.8885,1.8886,1.8886,1.8887,1.8839,1.8837,1.8835,0,0,0,0,0,0,0,0,0,0,0,0,0,1.8968,1.9001,1.8935,1.8926,1.8924,1.8893,1.8893,1.8892,1.8885,1.8886,1.8886,1.8887,1.884,1.8838,1.8835,1.8809,0,0,1.8828,1.8827,0,0,0,0,0,0,0,0,1.897,1.8966,1.8928,1.8926,1.8925,1.8895,1.8899,1.8864,1.8885,1.89,1.8886,1.8887,1.8857,1.8853,1.8844,1.8807,1.8805,1.8828,1.8826,1.8825,1.8824,0,0,0,0,0,0,0,1.8972,1.8967,1.8918,1.8927,1.8925,1.8921,1.8917,1.8892,1.8875,1.8899,1.8898,1.8893,1.8856,1.8846,1.8843,1.8804,1.8828,1.8826,1.8824,1.8823,1.874,1.8739,0,0,0,0,0,0,1.8977,1.8969,1.892,1.8917,1.8949,1.892,1.8915,1.8904,1.8876,1.8872,1.8893,1.8893,1.885,1.8845,1.8841,1.8806,1.8825,1.8823,1.8821,1.8741,1.874,1.8739,0,0,0,0,0,0,1.8979,1.8973,1.8921,1.8943,1.8936,1.8918,1.8906,1.8903,1.8893,1.8872,1.8868,1.8886,1.885,1.8844,1.8817,1.8804,1.8822,1.882,1.8742,1.874,1.8739,1.8738,0,0,0,0,0,0,1.8981,1.8974,1.8965,1.8943,1.8935,1.89,1.8905,1.8902,1.8889,1.8889,1.8864,1.8861,1.885,1.882,1.8814,1.8801,1.8818,1.8743,1.8741,1.874,1.8739,1.8737,1.8735,0,0,0,0,0,1.8983,1.8966,1.8965,1.8959,1.8924,1.8899,1.8894,1.8884,1.8889,1.8878,1.8864,1.8862,1.8807,1.8818,1.8811,1.8797,1.8743,1.8741,1.874,1.874,1.8737,1.8735,0,0,0,0,0,0,1.8986,1.8963,1.8961,1.8937,1.892,1.8898,1.8885,1.8882,1.8862,1.8863,1.8849,1.8844,1.8816,1.8804,1.8816,1.8768,1.8775,1.8772,1.8777,1.8775,1.8773,1.8775,1.8816,0,0,0,0,0,1.8984,1.8967,1.8947,1.8927,1.8919,1.8904,1.8892,1.8886,1.8867,1.8859,1.8843,1.8824,1.8802,1.8788,1.8767,1.8737,1.873,1.8724,1.8722,1.8721,1.8717,1.8697,1.8694,1.8733,1.8733,1.8733,0,0,1.8979,1.8965,1.8955,1.8928,1.8914,1.8894,1.8898,1.8878,1.8862,1.8856,1.8829,1.8816,1.8793,1.8763,1.875,1.8752,1.8705,1.8718,1.8717,1.8715,1.8695,1.8691,1.8688,1.8732,1.8732,1.8733,0,0,1.896,1.8949,1.893,1.8916,1.8895,1.8884,1.888,1.8858,1.8849,1.8822,1.8816,1.8796,1.876,1.8743,1.873,1.8702,1.8697,1.8695,1.8684,1.8665,1.8662,1.8659,1.8646,1.8642,1.8693,1.8693,1.8693,0,1.8956,1.8929,1.892,1.8899,1.8886,1.8881,1.886,1.8846,1.8819,1.8809,1.8813,1.8765,1.8749,1.8714,1.8707,1.8698,1.8689,1.8698,1.8664,1.866,1.8657,1.8645,1.864,1.8692,1.8692,1.8692,1.8692,0,1.8924,1.8904,1.8891,1.8866,1.8851,1.8831,1.8816,1.8802,1.8796,1.8784,1.8754,1.8735,1.8709,1.8701,1.8695,1.8663,1.8665,1.8667,1.8673,1.8654,1.8641,1.8637,1.8692,1.8692,1.8692,1.8692,0,0,1.8906,1.8875,1.887,1.8857,1.8833,1.8817,1.8794,1.877,1.8756,1.8737,1.8716,1.8684,1.8685,1.8669,1.8661,1.8644,1.862,1.8647,1.8646,1.864,1.858,1.8577,1.8572,1.8617,1.8616,1.8615,1.8581,0,1.8882,1.8844,1.8834,1.8801,1.8781,1.8774,1.8754,1.8736,1.8724,1.8703,1.8689,1.8666,1.8669,1.8659,1.8643,1.8626,1.8607,1.8629,1.8594,1.8593,1.8598,1.8567,1.8565,1.8533,1.8576,1.8576,1.8575,0,1.885,1.8831,1.8796,1.8771,1.8763,1.8745,1.872,1.8702,1.8679,1.8671,1.8653,1.8646,1.8619,1.8628,1.8589,1.8604,1.8589,1.8578,1.8577,1.8571,1.8581,1.8558,1.8523,1.8517,1.8568,1.8569,1.8569,0,1.8838,1.8803,1.8776,1.8766,1.8738,1.8725,1.8712,1.8691,1.8675,1.8653,1.8642,1.8616,1.8602,1.8581,1.8565,1.8574,1.8526,1.8535,1.8516,1.8516,1.8505,1.8505,1.8465,1.8499,1.85,1.85,1.85,0,1.8811,1.8789,1.877,1.8754,1.8727,1.8715,1.8689,1.8676,1.8656,1.8634,1.8627,1.8607,1.8589,1.8565,1.8553,1.852,1.8515,1.8505,1.8501,1.8504,1.8505,1.8493,1.8493,1.8498,1.8499,1.8499,1.8499,0,1.8793,1.8779,1.875,1.8725,1.8718,1.87,1.8677,1.8659,1.8647,1.8619,1.8612,1.8591,1.8563,1.8546,1.851,1.8501,1.8464,1.8463,1.8472,1.847,1.8451,1.8452,1.8399,1.839,1.8433,1.8433,1.8433,0,1.8776,1.8759,1.8732,1.8718,1.8705,1.8683,1.8667,1.8653,1.8636,1.8608,1.8593,1.8564,1.854,1.8494,1.8474,1.8445,1.8441,1.8425,1.8437,1.8439,1.8437,1.8437,1.8434,1.8422,1.8422,1.8421,1.8421,0,1.8747,1.8741,1.8719,1.8694,1.8676,1.8655,1.8635,1.8623,1.8605,1.8586,1.8557,1.8539,1.8501,1.8471,1.844,1.8425,1.8418,1.8418,1.8411,1.8413,1.8417,1.8411,1.8463,1.8418,1.8419,1.8419,1.8419,1.8419,1.8727,1.871,1.8688,1.8663,1.8646,1.8627,1.8608,1.8592,1.8569,1.8538,1.8531,1.8499,1.8473,1.8431,1.8414,1.8388,1.839,1.8382,1.8379,1.8376,1.8374,1.8424,1.8382,1.8382,1.8382,1.8382,1.8382,0,1.8695,1.868,1.8658,1.8629,1.8609,1.8607,1.8583,1.8565,1.8538,1.8516,1.8492,1.8456,1.8427,1.8404,1.8372,1.8355,1.8351,1.8347,1.8347,1.8342,1.8376,1.8383,1.835,1.835,1.835,1.835,1.835,1.835,1.8676,1.8647,1.8637,1.8597,1.8582,1.8552,1.8538,1.8519,1.85,1.8462,1.8437,1.8423,1.8399,1.8365,1.8336,1.833,1.8317,1.8313,1.8306,1.8337,1.834,1.8344,1.835,1.8311,1.8311,1.8274,1.8274,1.8273]},{"header":{"parameterUnit":"m.s-1","parameterCategory":1,"la1":30.2991,"la2":30.254,"lo1":-89.0895,"lo2":-89.0444,"dy":0.0017,"dx":0.0017,"nx":28,"ny":28,"refTime":"2024-07-18T21:00:00:Z","depth":0,"parameterNumber":3,"parameterNumberName":"V-component_of_WINDS"},"data":[0,0,0,0,0,0,0,0,0,0,0,0,0,0,0,0,0,0,0,0,0,0,0,0,0,0,0,0,0,0,0,0,0,0,0,0,0,0,0,0,0,0,0,0,0,0,0,0,0,0,0,0,0,0,0,0,0,0,2.5636,2.5638,0,2.5764,2.5766,2.5767,2.5728,2.5726,2.5723,2.5721,2.585,2.5856,2.5861,0,0,0,0,0,0,0,0,0,0,0,0,0,2.5354,2.536,2.5636,2.5638,2.5639,2.5764,2.5766,2.5767,2.5729,2.5726,2.5722,2.5719,2.5848,2.5855,2.5862,0,0,0,0,0,0,0,0,0,0,0,0,0,2.5479,2.5361,2.5636,2.5635,2.5636,2.5764,2.5766,2.5768,2.573,2.5726,2.5722,2.5718,2.5846,2.5854,2.5863,2.5998,0,0,2.589,2.5894,0,0,0,0,0,0,0,0,2.5472,2.5489,2.5634,2.5635,2.5637,2.5726,2.5714,2.5845,2.5731,2.5694,2.5721,2.5716,2.5812,2.5823,2.5856,2.6004,2.601,2.5891,2.5896,2.59,2.5903,0,0,0,0,0,0,0,2.5463,2.5483,2.5687,2.5636,2.5638,2.5627,2.564,2.5738,2.5774,2.5697,2.5695,2.571,2.5812,2.5848,2.5859,2.6012,2.5891,2.5899,2.5904,2.5908,2.6274,2.6279,0,0,0,0,0,0,2.5454,2.5477,2.5683,2.5691,2.5543,2.5635,2.565,2.5702,2.5773,2.578,2.5714,2.5708,2.5834,2.5848,2.5863,2.6025,2.59,2.5908,2.5914,2.627,2.6275,2.628,0,0,0,0,0,0,2.5448,2.5473,2.5677,2.5583,2.5608,2.5645,2.5703,2.5706,2.5742,2.5785,2.5791,2.5744,2.5832,2.5851,2.5964,2.6029,2.5912,2.5921,2.6265,2.6272,2.6278,2.635,0,0,0,0,0,0,2.544,2.5471,2.5524,2.5584,2.5613,2.5778,2.5707,2.5712,2.5758,2.5752,2.5815,2.5822,2.583,2.5951,2.5973,2.6039,2.5928,2.6259,2.6268,2.6276,2.6342,2.6359,2.6373,0,0,0,0,0,2.543,2.5539,2.5527,2.5552,2.5681,2.5782,2.5798,2.5806,2.5763,2.5816,2.5843,2.582,2.6018,2.5963,2.5988,2.6057,2.6255,2.6265,2.6275,2.6336,2.6355,2.6372,0,0,0,0,0,0,2.5485,2.5547,2.5534,2.5666,2.5719,2.5775,2.5842,2.5827,2.5893,2.5885,2.5891,2.5906,2.6022,2.6051,2.5989,2.619,2.613,2.6145,2.6168,2.6187,2.6202,2.6193,2.5935,0,0,0,0,0,2.5513,2.5591,2.564,2.5752,2.5779,2.5806,2.5851,2.5852,2.5907,2.5929,2.5965,2.6018,2.6092,2.6141,2.6212,2.6346,2.6358,2.6405,2.642,2.6432,2.6446,2.6517,2.6538,2.6313,2.6313,2.6312,0,0,2.557,2.5614,2.5663,2.5764,2.5805,2.5885,2.5825,2.5913,2.5971,2.5942,2.6052,2.6079,2.6139,2.6263,2.632,2.6291,2.651,2.6445,2.6454,2.6461,2.6529,2.6551,2.657,2.6319,2.6318,2.6317,0,0,2.5716,2.5757,2.5854,2.5896,2.5959,2.5976,2.5999,2.6057,2.6075,2.6185,2.6164,2.6233,2.6361,2.6404,2.6442,2.6601,2.6582,2.6624,2.6703,2.6772,2.679,2.6806,2.6862,2.6882,2.6637,2.6637,2.6637,0,2.578,2.59,2.5906,2.5995,2.6039,2.6015,2.6113,2.6153,2.6235,2.6266,2.6232,2.6391,2.6429,2.6562,2.6601,2.6633,2.6659,2.6617,2.6787,2.6803,2.6818,2.6871,2.6892,2.6641,2.6641,2.664,2.664,0,2.5975,2.6058,2.6129,2.6209,2.6261,2.6354,2.6372,2.6423,2.6419,2.6439,2.655,2.6595,2.6673,2.6705,2.6702,2.6837,2.6817,2.6785,2.6725,2.6844,2.6894,2.6915,2.6648,2.6646,2.6645,2.6644,0,0,2.6162,2.6242,2.6268,2.6303,2.6369,2.6433,2.6523,2.66,2.6644,2.6701,2.6776,2.6883,2.6853,2.6897,2.6898,2.6959,2.7081,2.692,2.6921,2.6948,2.7231,2.7255,2.7279,2.7067,2.7071,2.7074,2.7226,0,2.6313,2.6473,2.6479,2.6624,2.67,2.6677,2.6756,2.6804,2.6824,2.689,2.6911,2.6987,2.6943,2.6969,2.7028,2.7053,2.7138,2.7042,2.7137,2.714,2.7123,2.7305,2.7331,2.7472,2.7245,2.7249,2.7251,0,2.6512,2.6575,2.6728,2.6781,2.6813,2.6884,2.6953,2.7017,2.707,2.708,2.7128,2.7119,2.721,2.7145,2.7269,2.7204,2.7242,2.726,2.7266,2.7276,2.7204,2.732,2.7517,2.7538,2.7282,2.728,2.7278,0,2.6632,2.6755,2.6862,2.6893,2.6958,2.7007,2.7036,2.7086,2.7131,2.7191,2.722,2.729,2.7328,2.7382,2.7392,2.7344,2.7515,2.7452,2.7525,2.7525,2.7564,2.7561,2.777,2.7588,2.7587,2.7587,2.7586,0,2.6801,2.6896,2.6917,2.6983,2.7087,2.7091,2.7194,2.7219,2.7262,2.7332,2.7315,2.738,2.7389,2.7456,2.7463,2.7564,2.7581,2.7591,2.7592,2.7593,2.7592,2.7619,2.761,2.7593,2.7591,2.759,2.7589,0,2.6955,2.6973,2.7087,2.7139,2.7153,2.7228,2.7271,2.7333,2.735,2.7438,2.7458,2.7485,2.7562,2.7577,2.7669,2.7673,2.7793,2.7784,2.7776,2.7775,2.7848,2.7841,2.8082,2.8114,2.791,2.7912,2.7913,0,2.7062,2.7134,2.7192,2.7238,2.7269,2.7342,2.7388,2.7394,2.7442,2.7506,2.756,2.7636,2.7697,2.7821,2.7848,2.7917,2.791,2.7989,2.792,2.7918,2.7911,2.7907,2.7914,2.8003,2.8005,2.8007,2.8009,0,2.725,2.7255,2.7322,2.7391,2.7446,2.7501,2.7553,2.759,2.7603,2.7657,2.7736,2.7783,2.7876,2.795,2.8019,2.8047,2.803,2.803,2.805,2.8053,2.8045,2.805,2.7813,2.8025,2.8023,2.8022,2.8021,2.802,2.7384,2.7446,2.7497,2.7571,2.761,2.7658,2.7719,2.7743,2.7809,2.7885,2.7884,2.797,2.8018,2.8108,2.8141,2.8207,2.8182,2.8212,2.822,2.8227,2.8234,2.8033,2.822,2.8219,2.8219,2.8218,2.8218,0,2.7571,2.7602,2.767,2.7743,2.7801,2.7779,2.7834,2.7884,2.796,2.8007,2.8066,2.8156,2.8227,2.8259,2.8329,2.8376,2.837,2.8394,2.8391,2.8398,2.8253,2.8228,2.8398,2.8398,2.8398,2.8398,2.8398,2.8398,2.7676,2.778,2.779,2.7911,2.7941,2.8026,2.8059,2.8103,2.814,2.8241,2.83,2.832,2.836,2.8432,2.8496,2.8503,2.853,2.8558,2.8562,2.8426,2.8408,2.8391,2.8368,2.8564,2.8564,2.8702,2.8703,2.8704]}]]